Wind_Speed
13 13 13 13 13 12 10 9 8 8 7 7 6 6 6 6 5 5 5 6 6 5 5 5 4 4 3 3 3 2 3 3 4 4 5 5 4 4 4 4 3 4 4 4 5 5 6 5 5
14 12 13 14 13 10 9 9 8 9 8 7 7 7 7 6 6 6 6 6 5 5 5 5 5 4 3 2 2 2 2 3 3 3 3 4 3 3 3 3 3 3 4 4 4 5 5 6 6
14 13 15 16 12 10 10 9 9 9 8 8 8 7 8 7 7 6 6 6 6 5 5 5 5 5 4 2 2 3 3 3 3 2 2 3 3 2 2 2 3 4 4 5 5 6 6 5 5
14 16 17 14 11 10 10 10 10 9 9 9 8 8 8 8 7 7 6 6 6 6 5 5 6 5 6 5 4 4 3 3 2 2 1 1 2 2 2 2 3 4 5 6 5 5 6 5 5
16 17 16 11 10 10 11 10 10 10 9 9 9 9 8 8 7 7 7 7 6 6 6 6 6 6 7 7 7 5 4 3 2 2 1 1 1 1 2 3 3 3 3 4 4 4 5 5 5
16 16 13 9 9 10 10 10 10 10 10 9 9 9 9 9 8 8 7 7 7 7 7 7 6 6 6 6 5 4 4 3 2 2 1 1 0 1 2 3 2 2 1 2 2 3 4 4 4
15 16 11 9 9 10 10 10 10 10 10 10 10 10 9 9 9 9 8 8 7 7 7 7 7 6 6 6 5 4 2 2 2 1 1 0 1 2 2 3 3 1 1 2 2 4 4 4 3
14 14 9 8 9 10 10 10 10 11 11 11 10 9 9 9 9 9 9 8 8 8 7 7 7 6 6 5 5 5 3 2 1 1 1 1 2 2 2 2 2 1 1 2 3 4 3 3 2
13 11 8 7 7 9 10 10 10 10 10 10 10 10 9 9 9 9 9 8 8 8 8 7 7 7 6 5 5 4 4 3 2 2 2 2 2 2 2 2 2 1 2 3 4 4 3 3 3
8 6 6 7 8 8 8 9 10 10 10 10 10 9 9 10 10 10 9 9 8 8 7 7 7 7 7 6 5 5 4 4 4 3 3 3 3 3 3 2 2 2 2 2 3 3 3 3 3
6 6 8 8 7 8 8 10 11 10 10 11 10 10 10 10 10 10 9 9 8 8 8 7 7 7 7 7 6 6 5 4 4 4 4 4 5 5 3 2 1 1 1 1 2 2 2 3 3
5 6 7 8 8 8 8 9 9 9 10 11 11 11 10 11 11 10 10 9 8 8 8 8 8 8 7 7 7 6 7 6 5 5 5 5 6 6 5 3 2 2 2 2 3 3 3 3 3
5 6 7 8 8 8 7 8 9 10 10 11 11 11 10 10 10 10 10 10 9 8 8 8 8 8 8 7 7 7 6 6 6 6 6 6 6 6 5 4 4 3 2 3 3 3 4 4 4
6 6 6 7 8 9 8 9 10 10 10 10 10 11 11 10 10 10 9 9 9 8 8 8 9 9 9 8 7 7 7 7 7 6 7 7 7 6 5 4 4 4 4 3 3 4 5 5 6
5 6 7 8 8 8 9 10 10 10 11 11 11 10 10 10 10 10 9 9 9 8 8 8 9 9 9 9 9 7 7 7 6 7 7 7 8 7 6 5 5 5 4 4 4 5 5 6 6
4 5 5 7 8 8 9 10 11 11 11 11 11 11 10 10 10 10 9 9 8 8 8 9 9 9 9 9 8 8 8 7 6 6 7 8 8 7 7 6 7 7 7 6 6 6 6 7 7
2 4 3 5 7 8 8 9 11 12 11 11 11 10 10 10 9 10 9 9 8 9 9 9 9 9 9 9 8 9 9 8 7 7 7 7 8 8 8 8 9 9 9 8 7 7 8 8 8
0 1 3 3 5 6 7 8 11 12 12 11 10 10 9 9 9 9 9 9 9 9 9 9 9 9 9 8 9 9 9 8 7 7 8 8 8 8 9 9 9 9 9 9 9 9 9 9 9
2 3 4 4 4 5 7 8 9 11 12 11 11 11 10 10 9 9 9 9 9 9 10 10 10 9 8 9 9 10 10 9 8 8 8 9 9 10 10 10 10 10 10 10 9 10 10 9 10
5 5 6 6 7 6 8 9 9 9 10 11 12 12 11 10 9 9 9 9 10 10 10 10 10 10 9 9 9 10 10 10 10 9 9 10 10 11 11 11 11 11 11 11 11 10 11 11 11
5 5 6 8 8 7 10 9 9 9 11 11 12 12 12 12 11 10 10 10 10 10 11 11 10 10 10 10 10 11 11 11 11 11 11 12 12 12 13 12 12 12 12 13 13 12 12 12 13
7 7 9 10 9 7 9 11 12 11 12 11 12 13 13 13 12 11 10 10 11 11 11 10 10 11 11 11 11 11 11 11 12 12 13 13 13 14 14 13 13 13 13 13 13 14 14 14 14
8 8 10 9 9 9 12 15 13 12 11 10 12 14 14 14 13 12 12 12 11 11 11 11 11 11 11 12 12 12 12 12 13 13 14 14 14 15 15 15 15 14 15 15 15 15 15 16 16
8 8 8 8 10 11 11 12 13 12 12 11 12 14 13 14 14 13 13 12 12 12 11 12 12 12 12 13 13 13 13 13 14 14 15 15 15 15 16 17 16 16 16 16 16 16 16 17 17
7 7 9 10 10 11 9 11 14 15 14 14 15 15 15 14 14 13 13 13 12 13 13 13 12 13 13 14 14 14 14 15 15 15 15 15 16 16 17 17 17 17 17 17 17 17 18 18 19
8 8 9 10 10 10 12 14 15 14 15 16 16 16 16 15 15 14 13 13 13 14 14 13 13 14 14 15 15 16 16 16 17 17 17 17 17 18 18 18 18 18 18 18 18 19 19 19 20
10 9 9 12 11 12 14 15 15 15 17 18 18 17 15 15 15 16 15 15 15 15 15 14 15 15 16 16 16 17 17 18 19 19 19 18 18 19 18 18 18 18 18 18 18 19 20 20 20
10 9 10 11 12 11 12 14 17 17 17 19 19 18 17 17 17 18 18 17 17 17 17 17 17 17 17 17 17 18 18 19 19 19 19 19 19 19 19 19 18 19 19 20 20 20 20 21 21
11 11 11 12 12 12 14 15 17 18 18 19 19 19 18 19 19 19 19 19 18 18 19 19 19 19 19 19 19 19 20 20 19 20 20 20 20 20 20 19 19 20 20 21 21 21 21 22 22
14 14 13 13 14 15 16 19 16 17 19 17 18 19 20 20 20 20 21 21 20 20 20 20 21 21 21 20 20 21 22 21 21 21 21 21 21 22 21 22 22 22 23 23 22 22 22 23 23
Wind_Direction
81 78 76 73 66 64 59 48 36 35 36 31 29 25 20 23 27 27 24 20 27 33 38 37 42 54 73 79 91 120 121 123 130 134 148 151 156 167 175 184 189 192 196 204 209 210 220 216 220
82 80 77 71 61 54 50 36 37 36 36 32 27 30 31 35 37 36 29 28 36 40 46 40 39 42 62 80 115 129 133 131 134 124 144 155 162 173 189 203 211 222 231 225 216 214 218 219 217
85 80 73 64 48 44 43 37 39 39 37 32 30 33 40 40 40 38 34 34 42 45 47 48 41 40 43 47 145 150 141 128 125 111 125 163 173 187 213 230 240 249 248 245 233 229 222 226 216
84 75 66 61 44 44 42 38 39 35 37 32 30 34 39 39 40 39 34 36 44 44 47 51 42 43 47 55 110 133 132 124 113 108 112 136 175 196 237 263 268 270 259 248 238 237 227 226 216
84 71 65 57 42 42 43 40 34 34 36 34 33 34 37 38 37 37 35 36 41 46 50 49 46 44 52 68 93 118 120 118 112 129 121 122 145 229 271 295 289 285 264 246 236 230 223 219 222
78 69 67 51 45 41 39 38 32 34 32 32 33 35 36 36 35 35 34 33 39 48 50 48 48 48 53 62 75 92 111 120 115 126 122 119 67 341 339 331 327 288 244 229 221 209 208 211 212
77 72 67 47 42 41 38 36 33 33 34 34 34 35 37 36 37 35 34 35 39 45 48 47 47 50 54 54 59 60 77 93 99 94 100 15 344 337 333 343 354 334 247 227 212 206 203 205 205
83 80 69 50 39 36 35 33 31 33 36 34 34 35 35 36 34 33 32 37 41 42 45 46 46 49 50 49 49 51 50 44 35 16 359 334 331 330 327 329 348 317 255 230 212 203 202 202 209
75 69 59 55 43 36 31 31 31 31 29 33 32 32 32 30 29 29 30 31 35 41 42 43 47 45 44 43 38 33 25 10 355 345 338 326 326 326 321 315 320 287 241 226 216 208 206 220 223
65 63 52 46 39 39 32 25 31 25 22 28 28 29 29 27 27 26 25 30 29 29 34 35 37 37 36 34 27 21 14 3 352 341 336 328 328 320 317 321 310 287 254 234 227 212 216 220 222
70 52 47 44 38 36 35 25 26 20 19 24 25 26 27 25 25 23 21 26 26 21 23 25 28 25 26 23 20 22 19 9 358 346 344 340 331 329 319 336 335 340 276 257 246 213 222 226 223
60 47 46 39 38 36 35 30 20 19 17 18 20 22 23 22 20 23 24 21 24 21 21 18 16 18 15 14 17 17 14 10 3 360 358 351 346 340 332 326 330 320 290 274 268 268 254 243 233
43 38 38 39 29 30 28 26 19 15 16 15 14 16 19 19 16 14 15 13 12 17 17 15 14 14 9 5 9 7 5 3 0 2 2 354 347 345 333 320 313 301 288 285 279 278 272 264 264
51 34 26 26 21 19 16 19 14 8 9 7 6 11 15 13 13 12 10 12 12 14 15 12 10 8 5 4 5 2 1 360 358 353 354 353 348 343 330 319 328 313 292 293 288 282 274 274 274
39 29 19 14 12 13 9 10 6 360 1 358 359 6 10 9 10 10 9 10 12 13 10 6 5 3 360 359 359 359 357 354 352 352 350 349 354 357 347 330 324 317 313 301 292 288 287 288 279
23 13 11 355 358 356 7 357 358 354 356 353 354 358 1 4 3 3 5 6 7 6 4 0 0 358 355 354 356 354 349 351 349 351 350 349 348 349 342 332 325 322 317 308 299 294 289 285 281
349 324 345 350 349 345 355 344 349 348 349 351 350 349 350 353 359 356 359 1 359 358 355 353 354 354 352 352 349 348 346 341 340 349 349 344 341 339 333 328 323 319 315 310 302 297 290 285 281
226 276 316 309 324 339 339 338 341 341 342 346 347 343 340 342 346 350 353 354 354 354 353 350 348 347 348 349 348 347 345 343 336 340 346 347 343 335 327 323 321 317 313 309 302 297 292 288 284
291 314 298 300 315 323 318 325 333 335 339 344 341 341 339 338 343 348 345 346 347 347 345 343 341 338 338 342 344 342 346 345 341 339 344 345 340 333 327 326 323 318 310 304 298 292 292 291 289
255 268 289 301 303 305 306 313 326 324 329 336 338 337 337 337 339 340 342 343 341 340 341 341 339 336 332 335 339 337 338 339 336 334 336 336 333 329 326 323 320 316 310 305 296 291 290 290 290
259 261 270 277 284 296 301 303 315 316 321 328 331 332 334 335 335 332 333 334 335 336 337 337 335 332 332 333 333 331 331 328 327 326 326 327 327 326 324 321 320 318 313 307 296 290 288 288 290
264 258 261 277 289 295 297 294 295 304 313 321 326 327 327 327 327 326 328 329 332 334 334 334 333 331 329 329 327 326 325 322 320 319 320 321 322 320 320 319 319 318 314 310 301 294 292 290 290
259 263 268 277 288 286 285 283 287 299 309 313 319 323 322 319 322 324 323 326 329 330 331 332 330 329 329 328 327 325 324 322 320 318 316 316 318 318 317 316 317 316 315 310 304 297 294 292 291
258 279 290 284 277 273 279 287 292 297 308 307 310 318 318 317 319 321 321 324 323 323 325 325 326 326 325 326 327 326 325 324 323 320 318 316 317 317 316 315 313 313 312 308 305 301 297 293 291
260 282 292 294 294 295 295 285 285 300 298 301 305 309 310 313 315 315 316 318 319 318 319 321 321 321 320 321 322 321 321 321 319 318 316 315 316 316 316 315 313 310 307 306 304 301 300 297 293
259 262 277 283 284 287 285 277 283 291 295 299 299 304 304 306 310 310 310 313 314 312 313 316 318 318 319 319 319 319 318 318 315 313 312 311 312 313 313 313 313 312 308 304 302 300 300 299 296
252 249 265 282 283 285 289 285 280 284 291 297 301 298 299 302 305 304 304 306 309 309 310 311 311 314 316 316 316 316 316 315 314 313 311 312 311 311 312 312 311 309 309 306 304 302 300 299 298
256 248 262 264 271 274 283 288 285 281 288 299 301 298 300 301 301 301 300 303 305 305 307 308 307 308 310 311 312 314 316 316 315 315 314 313 314 312 310 310 309 309 308 306 303 302 301 299 297
252 248 257 262 266 265 274 274 279 288 292 295 297 298 297 299 299 299 297 299 301 303 304 304 305 305 305 305 309 313 317 316 315 315 315 314 314 314 312 310 311 309 308 306 304 301 301 298 297
261 259 260 267 275 277 278 279 280 287 291 294 296 295 297 296 297 298 297 297 301 304 302 301 300 301 302 305 309 311 313 313 312 311 313 311 310 311 311 310 310 310 308 306 305 303 301 299 297
Height
5885 5884 5884 5885 5885 5884 5883 5883 5882 5881 5880 5879 5877 5876 5875 5874 5874 5875 5872 5870 5869 5869 5868 5867 5866 5866 5865 5865 5865 5866 5866 5867 5867 5867 5868 5869 5869 5870 5870 5871 5871 5871 5872 5873 5874 5874 5875 5876 5877
5887 5887 5887 5886 5886 5885 5885 5885 5884 5883 5882 5880 5878 5877 5876 5875 5874 5873 5872 5871 5870 5870 5869 5868 5867 5866 5866 5865 5865 5866 5867 5867 5868 5868 5869 5869 5870 5870 5870 5871 5871 5871 5871 5872 5873 5873 5874 5875 5876
5890 5889 5888 5888 5889 5888 5888 5887 5885 5884 5883 5882 5880 5879 5878 5876 5875 5874 5873 5872 5871 5871 5870 5869 5868 5867 5865 5863 5862 5865 5867 5868 5869 5869 5870 5870 5870 5870 5870 5871 5871 5870 5870 5870 5870 5871 5873 5874 5875
5892 5891 5891 5892 5891 5891 5890 5889 5887 5886 5885 5883 5882 5880 5879 5878 5877 5875 5874 5873 5873 5872 5871 5870 5869 5868 5865 5860 5858 5863 5867 5868 5869 5870 5870 5870 5870 5871 5871 5870 5869 5868 5867 5867 5868 5869 5871 5873 5875
5893 5892 5893 5895 5894 5893 5892 5891 5889 5888 5886 5885 5883 5882 5881 5880 5878 5877 5875 5875 5874 5873 5872 5871 5870 5869 5867 5865 5864 5866 5868 5869 5870 5870 5871 5871 5871 5871 5871 5869 5867 5866 5865 5865 5866 5868 5870 5873 5874
5893 5893 5897 5897 5896 5895 5894 5893 5891 5890 5888 5886 5885 5884 5882 5881 5880 5878 5877 5876 5875 5874 5873 5872 5871 5871 5870 5869 5869 5869 5870 5870 5870 5871 5871 5871 5871 5871 5870 5869 5867 5866 5865 5866 5866 5868 5870 5872 5874
5896 5897 5900 5900 5898 5897 5896 5894 5893 5891 5890 5888 5887 5885 5884 5883 5881 5880 5878 5877 5876 5875 5874 5873 5873 5872 5872 5871 5871 5871 5871 5870 5871 5872 5872 5872 5872 5871 5871 5869 5867 5866 5865 5866 5867 5868 5870 5872 5874
5899 5901 5902 5902 5900 5899 5898 5896 5894 5893 5891 5890 5888 5887 5885 5884 5883 5881 5880 5878 5877 5877 5876 5875 5874 5874 5873 5873 5873 5872 5872 5872 5872 5872 5872 5872 5872 5872 5871 5870 5868 5866 5866 5866 5867 5869 5871 5872 5874
5903 5904 5904 5903 5902 5901 5899 5898 5896 5894 5893 5892 5890 5889 5887 5886 5884 5883 5881 5880 5879 5878 5877 5876 5876 5875 5874 5874 5874 5874 5874 5873 5873 5873 5873 5873 5873 5872 5872 5871 5869 5868 5867 5867 5868 5870 5871 5872 5873
5906 5906 5905 5905 5904 5903 5901 5899 5897 5896 5894 5893 5891 5890 5888 5887 5885 5884 5883 5882 5880 5880 5879 5878 5877 5876 5876 5875 5875 5875 5875 5874 5874 5874 5874 5873 5873 5872 5871 5871 5870 5869 5869 5869 5869 5870 5871 5872 5873
5908 5907 5906 5906 5905 5903 5903 5901 5899 5898 5896 5895 5893 5891 5890 5888 5887 5885 5884 5883 5882 5881 5880 5879 5878 5877 5877 5876 5876 5876 5875 5875 5875 5874 5874 5873 5873 5872 5871 5871 5870 5870 5870 5870 5869 5870 5871 5872 5873
5909 5908 5908 5908 5906 5905 5904 5903 5901 5900 5898 5896 5894 5893 5891 5889 5888 5886 5885 5884 5883 5882 5881 5881 5880 5879 5878 5877 5877 5876 5876 5876 5875 5874 5874 5873 5873 5872 5872 5871 5871 5870 5870 5870 5870 5870 5871 5871 5871
5910 5909 5908 5908 5907 5906 5905 5903 5902 5900 5899 5897 5895 5894 5892 5891 5889 5888 5887 5886 5884 5883 5882 5882 5881 5880 5879 5878 5877 5877 5876 5876 5875 5875 5874 5873 5873 5872 5871 5871 5871 5870 5870 5870 5870 5870 5870 5871 5871
5911 5909 5908 5909 5908 5906 5906 5905 5903 5901 5900 5898 5896 5894 5893 5892 5890 5889 5888 5886 5885 5884 5883 5882 5881 5880 5879 5879 5878 5877 5877 5876 5875 5874 5874 5873 5872 5871 5871 5871 5871 5870 5870 5870 5870 5870 5870 5870 5870
5911 5910 5909 5909 5909 5907 5907 5906 5904 5902 5900 5898 5897 5895 5894 5893 5891 5890 5889 5888 5886 5885 5884 5883 5882 5881 5880 5879 5878 5877 5877 5876 5875 5874 5874 5873 5872 5871 5871 5871 5871 5870 5870 5870 5869 5869 5869 5869 5869
5911 5910 5910 5911 5910 5909 5909 5907 5905 5903 5901 5899 5897 5896 5895 5893 5892 5891 5889 5888 5887 5886 5885 5884 5883 5882 5881 5879 5878 5878 5877 5876 5875 5874 5873 5872 5872 5871 5871 5870 5870 5870 5869 5869 5868 5868 5868 5868 5868
5912 5912 5911 5912 5911 5910 5909 5908 5906 5904 5901 5900 5898 5897 5895 5894 5893 5892 5890 5889 5888 5887 5885 5884 5883 5882 5881 5880 5879 5878 5877 5876 5875 5874 5873 5872 5871 5871 5870 5870 5869 5868 5868 5867 5867 5867 5867 5866 5866
5912 5913 5913 5913 5913 5911 5910 5909 5907 5905 5903 5900 5899 5897 5896 5894 5893 5892 5890 5889 5888 5887 5886 5885 5884 5882 5881 5880 5879 5878 5877 5875 5874 5874 5873 5872 5871 5870 5870 5869 5868 5867 5867 5866 5865 5865 5865 5865 5864
5912 5912 5912 5913 5912 5912 5910 5909 5907 5905 5903 5901 5899 5897 5896 5894 5893 5891 5890 5889 5888 5887 5886 5885 5883 5882 5881 5880 5879 5877 5876 5875 5874 5873 5872 5871 5870 5870 5869 5868 5867 5866 5865 5864 5864 5863 5863 5863 5862
5913 5913 5913 5912 5911 5911 5909 5908 5906 5904 5902 5901 5900 5897 5896 5894 5892 5891 5890 5889 5888 5887 5886 5884 5883 5882 5881 5879 5878 5877 5876 5875 5873 5872 5871 5871 5870 5868 5867 5866 5865 5864 5862 5861 5861 5861 5860 5860 5860
5912 5912 5913 5912 5910 5910 5908 5906 5905 5903 5902 5901 5899 5897 5895 5894 5893 5891 5890 5888 5887 5886 5885 5884 5882 5881 5880 5879 5878 5876 5875 5874 5873 5872 5871 5869 5868 5867 5865 5864 5863 5862 5860 5859 5858 5858 5858 5857 5857
5911 5912 5911 5910 5909 5908 5907 5905 5903 5902 5901 5900 5898 5897 5895 5893 5892 5891 5889 5888 5886 5885 5884 5883 5882 5881 5879 5878 5877 5875 5874 5873 5872 5870 5869 5868 5867 5865 5863 5862 5861 5859 5858 5856 5855 5855 5854 5854 5854
5909 5909 5909 5909 5908 5908 5906 5903 5900 5901 5899 5899 5897 5895 5894 5892 5891 5890 5888 5887 5886 5884 5883 5882 5881 5880 5878 5877 5875 5874 5873 5872 5870 5869 5867 5866 5864 5863 5861 5860 5858 5857 5855 5854 5852 5851 5851 5850 5850
5907 5907 5907 5906 5906 5905 5904 5902 5899 5899 5899 5897 5896 5894 5893 5891 5890 5888 5887 5886 5885 5883 5882 5881 5880 5878 5877 5875 5874 5872 5871 5870 5868 5867 5865 5864 5862 5860 5859 5857 5855 5854 5852 5851 5849 5848 5847 5847 5846
5906 5907 5906 5905 5904 5903 5903 5901 5899 5898 5897 5896 5894 5893 5891 5890 5889 5887 5885 5884 5883 5882 5881 5879 5878 5877 5875 5874 5872 5871 5869 5868 5866 5864 5863 5861 5860 5858 5856 5854 5852 5850 5849 5847 5846 5844 5843 5842 5841
5904 5905 5906 5905 5903 5903 5901 5899 5897 5896 5895 5894 5892 5891 5889 5888 5887 5885 5884 5883 5881 5880 5879 5878 5877 5875 5874 5872 5870 5868 5867 5865 5863 5861 5860 5858 5856 5855 5853 5851 5849 5847 5845 5843 5842 5840 5839 5837 5836
5901 5902 5903 5903 5902 5901 5899 5897 5895 5893 5893 5892 5890 5888 5887 5886 5884 5883 5882 5880 5879 5878 5877 5876 5874 5873 5871 5869 5868 5866 5864 5862 5860 5858 5856 5854 5853 5851 5849 5847 5845 5843 5841 5839 5837 5835 5834 5833 5831
5899 5899 5900 5900 5899 5898 5897 5895 5893 5891 5891 5888 5886 5885 5883 5883 5881 5880 5879 5878 5877 5876 5874 5873 5872 5870 5868 5867 5865 5863 5860 5858 5856 5854 5852 5850 5848 5846 5844 5843 5841 5839 5837 5834 5832 5830 5829 5827 5826
5895 5896 5895 5896 5895 5895 5894 5893 5889 5889 5887 5885 5883 5882 5880 5879 5878 5877 5876 5874 5873 5872 5871 5870 5868 5866 5865 5863 5861 5859 5857 5855 5853 5851 5849 5846 5844 5842 5839 5838 5836 5834 5832 5830 5827 5825 5823 5822 5820
5893 5893 5893 5894 5892 5891 5890 5890 5885 5885 5884 5882 5879 5879 5877 5876 5875 5873 5871 5870 5869 5868 5867 5865 5864 5862 5861 5859 5857 5855 5853 5851 5849 5847 5844 5842 5840 5838 5835 5833 5831 5829 5826 5824 5822 5820 5818 5816 5814